sat.trackr.live / text

‹ back to catalog

STARLINK-32590

NORAD 63047 · 2025-034U

PAYLOAD ACTIVE UNKNOWN

§ Identity

Operator
Country
US
Launch date
2025-02-18
Launch site
AFETR
Launch vehicle
Mass (kg)
RCS (m²)

Purposes: comms

External: N2YO · Heavens-Above · Gunter

§ Orbital elements

Epoch: 2026-05-25T00:41:46.436352Z

Period
94.10 min
Inclination
53.1596°
Eccentricity
0.0001333
Mean motion
15.30214280 rev/d
Perigee alt
474.3 km
Apogee alt
476.1 km
Semi-major
6,853.3 km
B*
5.9000e-4
RAAN
263.6117°
Arg perigee
86.1062°
Mean anomaly
274.0091°
Rev number
7,076

§ Raw data

STARLINK-325901 63047U 25034U   26145.02900968  .00017163  00000+0  59000-3 0  99902 63047  53.1596 263.6117 0001333  86.1062 274.0091 15.30214280 70769

JSON: /api/v1/satellites/63047 · /tle

For live sub-satellite position, see the globe view (requires WebGL).

§ Visibility from observer

Set your observer location to see the next 7 days of passes ≥ 10°. The values pass through the URL so the page stays shareable.

No JS? Fill the form by hand. The geolocation button needs JavaScript.